Theta_e
267 267 266 266 266 266 266 267 267 267 267 267 266 266 265 265 265 265 265 264 264 264 263 263 263 263 263 263 263 263 263 263 263 263 263 263 263 263 263 263 263 263 263 264 264 265 265 265 266 266 267 267 267 267 268 269 269 269 270 270 271 271 272 273 273 273 274 274 275 275 275 276 277 277 278 278 279 279 279 279 279 279 279 279 279
266 266 265 265 266 266 266 266 266 266 266 266 265 265 264 264 264 264 264 263 263 263 263 263 263 263 263 263 262 262 262 262 262 262 262 262 262 262 262 262 262 262 263 263 264 264 265 265 265 266 266 266 267 267 267 268 268 268 269 270 270 271 271 272 272 272 273 273 273 274 274 274 275 275 275 276 277 277 278 278 278 278 278 278 278
265 265 265 265 265 265 265 265 265 265 265 264 264 264 263 263 263 263 263 263 262 262 262 262 262 262 262 262 261 261 261 261 261 261 261 261 261 261 262 262 262 262 263 263 264 264 264 264 265 265 266 266 266 266 267 268 268 268 268 269 269 270 270 271 272 272 272 272 272 273 273 273 273 274 274 274 275 275 275 276 276 277 277 277 276
264 264 264 264 264 264 264 264 264 264 264 263 263 263 263 262 263 262 262 262 261 261 261 261 261 261 261 261 261 261 260 260 260 260 260 260 260 261 261 261 262 262 263 263 264 264 264 264 264 265 265 265 265 266 266 267 267 267 267 267 268 268 269 269 270 271 272 272 272 272 272 272 273 273 273 273 273 273 274 274 274 275 275 275 275
263 263 263 264 264 263 263 263 263 262 262 262 261 261 261 261 261 261 260 260 260 260 260 260 259 260 260 260 260 260 260 260 260 260 260 260 260 260 261 261 262 262 263 263 264 264 264 264 264 264 264 264 264 265 266 266 266 266 266 267 267 267 268 268 269 269 270 271 271 271 272 272 272 272 272 272 273 273 273 273 273 273 273 273 274
263 262 262 263 263 262 262 262 261 261 260 260 260 259 260 259 259 259 259 259 259 258 258 258 258 258 258 258 258 258 258 259 259 259 260 260 260 260 261 262 262 262 263 264 264 264 264 264 264 264 263 264 264 265 265 265 265 265 265 265 266 267 267 267 268 268 269 269 270 270 270 270 271 271 272 272 272 272 272 272 272 272 272 272 272
262 261 262 262 262 261 261 260 260 259 259 259 259 258 258 258 257 258 257 257 257 257 257 257 257 257 257 257 257 257 257 257 257 258 259 260 260 260 261 262 262 263 263 264 264 264 264 263 263 264 264 264 264 264 264 264 264 263 263 264 264 264 265 266 267 268 268 269 269 269 269 269 270 271 271 272 272 271 271 270 270 271 271 270 270
261 260 261 262 261 260 260 259 259 259 258 258 258 257 257 257 256 256 256 256 256 256 256 256 256 256 256 256 256 256 256 256 256 256 257 259 260 260 261 262 262 263 263 263 263 263 263 264 263 263 264 263 263 263 263 263 263 263 263 263 263 263 263 263 264 266 267 268 269 269 269 269 270 270 271 271 271 270 270 269 268 269 269 269 269
260 260 260 260 260 259 259 258 258 258 257 257 257 256 256 256 256 256 256 256 256 256 256 256 256 255 255 255 255 255 255 255 255 255 257 259 260 261 262 262 262 262 262 263 263 263 264 263 263 263 263 262 262 262 262 262 262 262 262 262 262 262 262 262 263 264 265 266 267 268 268 269 269 269 269 269 269 269 268 268 267 267 268 268 267
259 259 260 259 258 258 257 257 257 256 256 255 255 255 255 255 255 255 255 255 255 255 255 255 255 255 255 255 255 255 255 255 255 256 258 260 261 262 262 262 262 263 263 263 263 263 263 262 262 262 262 262 261 261 262 262 262 262 262 262 261 261 261 262 262 263 263 265 266 267 267 267 268 268 267 268 268 267 267 267 266 266 267 266 266
258 259 258 257 257 257 256 255 255 255 254 254 254 254 254 254 254 254 254 254 254 254 254 254 254 254 254 254 254 254 254 254 255 257 259 261 261 262 262 262 262 262 262 262 262 261 261 261 261 261 261 261 261 261 261 261 261 261 261 261 261 261 261 261 262 262 263 264 265 266 266 266 267 267 266 266 266 266 266 266 266 265 265 265 265
258 258 257 256 255 255 254 254 254 253 253 253 253 253 252 253 253 253 253 253 253 253 253 253 253 253 253 253 253 253 253 254 255 257 259 260 261 261 261 261 261 261 260 260 260 259 259 259 260 260 260 260 260 260 261 260 261 261 260 260 260 261 261 261 261 262 262 263 264 265 266 266 266 266 266 266 265 265 265 265 265 265 264 264 264
257 256 255 255 254 253 253 253 252 252 252 252 251 251 251 251 251 251 252 252 252 252 252 253 253 253 253 253 253 253 253 253 254 256 258 259 260 260 260 260 259 259 259 259 259 259 259 259 259 259 259 260 260 260 260 260 260 260 260 260 260 260 261 261 261 261 262 263 263 264 265 265 265 265 265 265 265 264 264 264 264 264 264 264 264
255 254 254 253 252 252 252 251 251 251 251 250 250 250 250 250 250 251 251 251 251 251 252 252 252 252 252 252 252 252 252 252 254 256 257 258 259 259 259 258 258 258 258 258 258 258 258 258 258 258 259 259 260 260 260 260 260 260 260 260 260 260 261 261 261 261 262 262 262 263 263 264 264 265 265 265 264 264 264 264 264 263 263 263 263
253 253 252 252 251 251 251 250 250 250 249 249 249 249 249 249 249 250 250 250 250 251 251 251 251 251 251 251 251 251 251 252 254 255 256 257 258 257 257 257 257 256 256 256 256 257 257 257 257 257 258 258 259 259 259 259 260 260 260 260 260 261 261 262 262 262 262 262 263 263 263 264 264 264 264 264 264 263 263 262 262 262 261 261 261
252 251 251 250 250 250 250 249 249 248 248 248 248 248 248 248 248 249 249 249 250 250 250 250 250 250 250 250 250 250 250 251 253 254 255 256 256 256 255 255 255 255 255 255 255 255 256 256 256 257 257 258 258 259 259 259 260 260 260 261 261 261 261 262 262 262 263 263 263 263 263 263 263 263 263 263 263 262 262 261 261 261 260 260 260
250 250 249 249 249 249 249 248 248 248 248 247 247 247 247 248 248 248 248 249 249 249 249 249 249 249 249 249 249 250 250 250 251 252 254 255 255 254 254 254 254 254 254 254 254 255 255 255 256 256 257 257 258 259 260 260 260 261 261 261 261 261 261 261 261 261 262 263 263 263 262 262 262 262 262 261 260 261 261 260 260 260 259 258 258
249 249 248 248 248 248 248 247 247 247 247 247 247 247 247 247 247 248 248 248 248 248 248 248 248 248 248 249 249 249 249 249 250 251 253 254 253 253 253 253 253 253 253 253 254 254 254 255 255 256 256 256 257 259 260 261 261 261 261 260 260 260 260 260 260 260 260 261 261 261 261 261 261 261 260 259 259 259 259 259 259 258 257 257 257
248 248 248 248 247 247 247 247 247 247 246 246 246 246 246 247 247 247 247 247 247 247 247 247 247 248 248 248 248 249 249 249 249 250 252 253 253 252 252 252 252 252 253 253 253 254 254 254 254 255 256 256 257 258 260 260 261 261 260 259 259 259 258 258 258 258 259 259 260 260 260 260 260 260 259 259 258 258 258 258 257 257 257 256 256
247 247 247 247 247 247 246 246 246 246 246 246 246 246 246 246 246 246 246 246 246 246 247 247 247 247 248 248 248 248 248 248 249 250 251 252 252 252 252 251 252 252 252 253 253 253 253 253 253 254 255 256 256 257 259 260 260 260 259 259 259 258 257 257 257 257 257 258 258 258 258 259 259 259 259 259 258 258 258 257 257 256 256 256 256
247 247 247 246 246 246 246 246 246 246 246 246 246 246 246 246 246 246 246 246 246 246 246 247 247 247 247 247 247 248 248 248 248 249 250 251 251 251 251 251 251 252 252 252 252 252 252 252 252 253 254 255 256 257 259 259 259 259 259 259 258 257 257 257 256 256 257 257 257 257 257 257 258 258 258 258 258 258 258 257 256 256 255 255 255
246 246 246 246 246 246 246 246 246 246 246 246 245 245 246 246 246 246 246 246 246 246 246 246 246 246 247 247 247 247 248 248 248 248 249 249 250 251 250 250 251 252 252 251 251 251 251 251 252 252 253 254 255 257 258 258 257 258 259 258 257 256 256 256 256 256 256 256 256 256 256 256 256 256 256 256 256 256 256 256 255 255 255 255 254
246 246 246 246 246 246 246 246 246 246 246 245 245 245 245 245 245 245 245 245 245 245 246 246 246 246 246 246 247 247 247 247 247 247 248 248 249 250 250 250 250 251 251 251 251 251 251 251 251 252 253 254 255 256 257 257 256 257 257 256 256 255 255 255 255 255 255 255 254 254 254 254 254 254 254 254 254 254 254 254 254 254 254 254 254
246 246 246 245 245 245 245 245 246 245 245 245 245 245 245 245 245 245 245 245 245 245 245 245 245 246 246 246 246 247 247 247 247 247 247 248 248 249 249 249 250 250 250 250 250 250 250 251 251 252 253 254 255 256 256 255 255 255 255 255 255 254 254 254 254 254 254 253 253 253 253 253 253 253 253 253 253 253 253 253 253 253 253 253 253
245 245 245 245 245 245 245 245 245 245 245 245 245 244 245 244 244 245 244 244 245 245 245 245 245 245 246 246 246 246 246 246 246 246 247 247 248 248 249 249 249 249 249 249 250 250 250 251 251 252 252 253 254 254 254 254 254 254 254 254 253 253 253 253 252 252 252 252 252 251 252 252 252 251 251 251 251 252 252 252 252 252 252 253 253
245 245 245 245 245 245 245 245 245 244 244 244 244 244 244 244 244 244 244 244 244 244 244 245 245 245 245 246 246 246 246 246 246 246 246 247 247 248 248 249 249 249 249 249 249 249 250 250 251 251 252 252 253 253 254 253 253 253 253 253 253 252 252 252 252 252 251 251 251 251 251 251 251 251 251 251 251 251 251 251 251 251 252 252 252
245 245 245 245 245 245 244 244 244 244 244 244 244 244 244 244 244 244 244 244 244 244 244 245 245 245 245 245 245 245 245 245 245 246 246 247 247 248 248 248 248 248 248 249 249 249 250 250 251 251 251 252 252 253 253 253 252 252 252 252 252 251 251 251 251 251 251 250 250 250 250 250 250 250 250 250 250 250 250 250 250 250 251 251 251
244 244 244 244 244 244 244 244 244 244 244 244 244 244 244 244 244 244 244 244 244 244 244 244 245 245 245 245 245 245 245 245 245 246 246 247 247 248 248 248 248 248 248 249 249 249 250 250 251 251 251 251 252 252 252 252 252 252 251 251 251 251 250 250 250 250 250 250 249 249 249 249 249 249 249 249 249 250 250 250 250 250 250 250 250
244 244 244 244 244 244 244 244 244 244 244 244 244 244 244 244 244 244 244 244 244 244 244 245 245 245 245 245 245 244 244 245 245 246 246 247 247 247 247 248 248 248 248 249 249 249 249 250 250 251 251 251 251 251 251 251 251 251 251 250 250 250 250 249 249 249 249 249 249 248 248 248 249 249 249 249 249 249 249 249 249 249 249 250 250
244 244 244 244 244 244 244 244 244 244 244 244 244 244 244 244 244 244 244 244 244 244 244 245 245 245 245 245 244 244 245 245 245 246 246 246 247 247 247 247 247 248 248 248 248 248 249 249 249 249 249 250 250 250 250 250 250 250 250 250 249 249 249 249 249 249 248 248 248 248 248 248 248 248 248 248 248 248 249 249 249 249 249 249 249
244 244 244 244 244 244 244 244 244 244 244 244 244 244 244 244 244 244 244 244 244 244 244 244 244 244 244 244 244 244 245 245 245 245 246 246 246 247 247 247 247 247 247 247 247 248 248 248 248 248 248 248 248 249 249 249 248 248 248 248 248 248 248 248 248 248 248 248 247 247 247 247 247 247 247 247 247 248 248 248 248 248 248 248 248
244 244 244 244 244 244 244 244 244 244 244 244 244 244 243 243 244 244 244 245 245 245 245 244 244 244 244 244 244 244 244 244 245 245 245 245 246 246 246 246 246 246 246 246 247 247 247 247 247 247 247 247 248 248 248 248 247 247 247 247 248 248 248 247 247 247 247 247 247 247 247 247 247 247 247 247 247 247 247 247 248 248 248 248 248
243 244 244 244 244 244 244 244 244 244 244 244 244 243 243 243 243 243 244 245 245 245 245 245 245 244 244 245 244 244 244 244 244 244 245 245 245 246 246 245 245 245 245 245 246 246 246 246 246 247 247 247 247 247 247 247 247 247 247 247 247 247 247 247 247 247 247 246 246 246 247 247 247 246 246 246 246 246 246 247 247 247 247 247 247
244 244 244 244 244 244 244 244 244 244 244 244 244 243 243 243 243 242 243 243 244 245 246 246 245 245 245 245 245 244 244 244 244 244 244 245 245 245 245 245 245 245 245 245 245 245 245 245 245 246 246 246 246 246 246 246 246 246 246 246 246 246 246 247 246 246 246 246 246 246 246 246 246 246 246 246 246 246 246 246 246 247 247 247 247
244 244 244 244 244 244 244 244 244 244 244 244 244 243 243 243 243 242 242 242 242 243 244 245 245 245 245 245 244 244 244 244 244 244 244 245 245 244 244 244 245 245 245 245 245 244 244 244 245 245 245 245 245 245 245 245 246 246 246 246 246 246 246 246 246 246 246 246 246 246 246 246 246 246 245 245 245 245 246 246 246 246 246 247 247
244 244 244 244 244 244 244 244 244 244 244 244 244 243 243 243 243 242 242 242 242 242 242 243 245 245 245 245 244 244 244 244 244 244 244 244 244 244 243 243 243 243 244 244 244 244 244 244 245 245 245 245 245 245 245 245 245 245 245 245 245 245 245 246 246 246 246 246 246 246 246 246 246 246 245 245 245 245 245 246 246 246 247 247 247
244 244 244 244 244 244 244 244 244 244 244 244 244 244 243 243 243 242 242 242 242 242 242 243 244 244 245 245 245 244 245 245 245 244 244 244 244 244 243 243 242 242 243 243 244 244 244 244 244 244 245 245 245 245 245 245 245 245 245 245 245 245 245 245 245 245 245 245 246 246 246 246 246 246 245 245 245 246 246 246 246 246 247 247 247
244 244 244 244 245 244 244 245 245 244 244 244 244 244 243 243 243 243 242 242 242 242 242 243 243 243 244 244 244 244 244 245 245 245 245 245 245 244 244 243 243 243 243 243 243 243 243 244 244 244 244 245 245 245 245 245 245 245 245 245 245 245 245 245 245 245 245 245 246 246 246 246 246 246 245 245 245 246 246 246 246 246 246 247 247
245 245 245 245 245 245 245 245 245 245 244 244 244 244 243 243 243 243 242 242 243 243 243 243 243 243 243 244 244 243 243 243 243 244 244 244 244 244 244 243 243 243 243 243 244 243 243 244 244 244 245 245 245 245 245 245 245 245 245 245 245 245 245 245 245 246 246 246 246 246 246 246 246 246 246 246 246 246 246 246 247 246 246 247 247
245 245 245 245 245 245 245 245 245 245 245 244 244 244 243 243 243 243 243 243 243 243 243 243 243 244 244 243 243 243 242 242 243 243 243 243 244 244 244 244 244 244 244 244 244 244 244 244 244 244 245 245 245 245 245 245 245 245 245 244 244 245 245 246 245 246 246 246 246 246 246 246 246 246 246 246 246 246 246 246 246 247 247 247 247
245 246 246 246 245 245 245 246 245 245 245 245 244 244 244 244 243 243 243 243 243 243 243 243 244 244 244 244 243 243 242 242 243 243 243 243 243 244 244 244 244 244 244 244 244 244 244 244 244 244 245 245 245 245 245 245 245 245 245 245 245 245 245 245 246 246 246 246 246 246 246 247 246 246 246 247 247 247 246 246 246 247 247 247 247
245 246 246 246 246 245 246 246 245 245 245 245 245 244 244 244 244 244 243 243 243 243 243 244 244 245 245 244 244 243 243 243 243 243 243 243 244 244 244 244 244 244 244 244 244 244 244 244 244 245 245 245 245 245 245 245 245 245 245 245 245 245 245 245 246 246 246 246 246 246 246 247 247 246 246 247 247 246 247 247 247 247 247 246 246
246 246 246 246 246 245 245 245 245 245 245 245 245 245 244 244 244 244 244 244 244 244 243 244 244 245 245 245 245 244 244 244 244 244 244 244 244 244 244 245 245 245 245 245 245 245 245 245 245 245 245 245 245 245 245 245 245 245 245 245 245 245 245 245 246 246 246 246 246 246 246 246 246 246 246 247 247 247 247 247 247 247 247 246 246
246 246 246 246 246 246 246 246 245 245 245 245 245 245 245 245 245 245 245 245 245 244 244 244 244 244 244 245 245 244 244 244 244 244 244 244 244 245 245 245 245 245 245 245 245 245 245 245 245 245 245 246 246 246 246 246 245 245 245 245 245 245 245 245 246 246 246 246 246 246 246 246 246 246 246 246 246 246 246 246 246 246 246 246 246
246 246 246 246 246 246 246 246 246 246 246 245 246 246 246 245 245 245 245 245 245 245 245 245 244 244 244 244 244 244 244 244 244 244 245 245 245 245 245 245 245 245 245 246 246 246 246 246 246 246 246 246 246 246 246 246 246 246 246 246 245 245 246 246 246 246 246 246 246 246 246 246 246 246 246 247 247 246 246 246 246 246 246 246 246
246 246 246 246 246 246 246 246 246 246 246 246 246 246 246 246 246 246 246 245 245 245 245 245 245 245 244 244 244 244 245 245 245 245 245 245 245 245 246 246 246 246 246 246 246 246 246 246 246 246 246 246 247 247 247 247 247 246 246 246 246 246 246 246 246 246 246 246 246 246 246 246 246 246 246 247 247 247 246 247 247 246 246 246 246
246 246 246 246 245 246 246 246 246 246 246 246 245 245 245 246 246 246 246 246 246 246 246 246 245 245 245 245 245 245 245 245 245 245 245 246 246 246 246 246 246 246 246 247 247 247 247 247 247 247 247 247 247 247 247 247 247 247 247 247 246 246 246 247 247 247 247 247 247 247 246 246 246 247 247 247 247 247 247 247 246 246 246 246 246
246 246 246 246 246 246 246 246 246 246 246 246 245 245 245 246 246 246 246 246 246 246 246 246 246 245 245 245 245 245 245 245 246 246 246 246 246 246 246 246 246 247 247 247 247 247 247 247 247 247 247 247 247 247 247 247 247 247 247 247 247 247 247 247 247 247 247 247 247 247 247 247 247 247 247 247 247 247 247 246 246 246 246 246 246
246 246 246 246 246 246 246 246 245 246 246 245 245 246 246 246 246 246 246 246 246 246 246 246 246 246 246 246 246 246 246 246 246 246 246 247 247 247 247 247 247 247 247 247 248 248 248 248 248 248 248 248 248 247 248 247 247 247 247 247 247 247 247 247 247 247 247 247 247 247 247 247 247 247 247 247 247 247 246 246 246 246 246 246 246
246 246 246 246 246 246 246 246 246 246 246 245 245 245 246 246 246 246 246 246 246 246 246 246 246 246 246 246 246 246 246 246 246 247 247 247 247 247 247 247 248 248 248 248 248 248 248 248 248 248 248 248 248 248 248 248 248 247 247 247 247 247 247 247 247 247 247 247 247 247 246 246 246 246 246 246 246 246 246 246 246 246 246 246 246
246 246 246 246 246 246 246 246 246 246 246 246 246 246 246 246 246 246 246 246 246 246 246 246 246 246 247 247 246 246 247 247 247 247 247 247 247 248 248 248 248 248 248 248 248 249 249 249 249 249 249 249 249 248 248 248 248 248 247 247 247 247 247 247 247 246 247 246 246 246 246 246 246 246 246 246 246 246 246 246 246 246 246 246 246
Wind_Speed
19 18 20 21 20 21 21 19 18 16 14 15 16 16 17 17 17 17 18 18 19 20 21 21 22 23 23 24 25 26 27 27 24 23 25 25 23 23 23 21 21 22 21 20 18 17 17 17 17 18 17 16 16 17 18 16 15 16 15 13 14 13 12 12 10 14 25 23 17 21 21 19 22 22 20 22 22 19 18 17 16 16 16 17 17
19 19 22 24 22 21 20 19 17 15 14 15 15 16 17 17 18 19 19 20 20 21 22 23 23 24 24 25 26 26 26 25 24 24 25 23 22 22 22 21 22 22 21 20 19 18 17 16 16 15 15 14 14 15 14 13 14 14 11 9 11 11 9 13 13 12 21 26 21 21 21 17 18 22 20 21 24 24 23 23 21 20 20 20 21
22 23 24 24 21 20 20 19 17 16 16 17 17 17 18 19 20 20 21 22 22 23 24 24 25 25 25 26 27 27 26 25 25 25 24 23 22 22 22 22 22 22 20 20 19 18 17 17 16 14 14 14 14 14 12 11 11 10 11 11 11 12 11 12 15 14 17 25 26 22 20 18 18 20 20 20 22 25 26 27 27 26 26 26 26
23 23 24 22 19 19 20 19 18 18 18 19 19 20 20 21 22 23 24 24 25 25 26 26 26 26 26 28 27 27 27 26 26 25 24 23 22 22 22 22 21 20 19 19 19 18 18 17 16 16 17 18 16 14 12 12 12 12 13 13 12 14 14 12 14 17 17 22 26 23 20 19 19 20 20 21 21 23 25 26 28 29 30 29 29
22 23 23 19 17 19 19 19 20 20 20 21 21 21 22 23 24 24 25 26 26 26 26 26 24 24 26 26 25 26 27 27 26 26 25 24 24 23 22 21 20 20 20 19 18 17 15 15 17 20 22 22 19 17 15 14 14 14 13 14 14 15 16 16 16 17 18 20 24 24 21 19 19 19 20 21 22 22 23 23 23 24 25 26 26
21 22 21 16 15 18 18 19 20 19 20 21 21 22 23 23 24 24 25 27 26 25 26 24 22 23 24 23 23 24 24 24 25 25 25 25 25 24 23 22 22 22 22 20 17 15 15 17 20 22 22 23 21 19 15 13 12 12 12 14 15 15 16 17 18 19 20 21 23 25 23 21 20 19 19 20 21 20 18 17 16 15 16 17 18
18 19 18 13 13 17 17 17 19 19 20 21 21 22 23 23 24 25 26 26 24 24 25 23 22 23 23 22 22 22 21 22 22 23 23 23 23 23 23 24 24 23 22 20 17 17 20 22 23 23 21 19 16 13 12 13 14 16 17 17 17 18 18 18 17 18 19 20 21 23 24 22 20 19 17 15 14 14 12 10 11 12 12 13 14
18 19 17 11 13 17 16 18 19 20 21 22 23 24 25 25 26 28 28 26 24 24 22 22 23 24 23 23 23 22 21 21 20 21 23 24 22 22 23 22 23 23 22 22 23 24 26 24 21 18 14 12 12 12 14 18 19 20 21 21 20 21 21 19 19 17 16 16 17 18 20 20 19 16 13 11 12 14 11 7 9 12 12 13 14
19 19 14 10 14 17 17 19 20 21 22 23 24 26 27 28 29 30 29 27 26 24 22 23 24 24 24 25 25 25 24 23 22 22 24 25 24 24 23 23 23 24 24 24 24 23 19 15 12 12 12 14 17 19 21 22 22 22 23 23 22 23 23 22 20 18 18 17 16 17 16 15 15 12 8 7 8 10 9 7 8 11 13 14 17
18 16 12 10 14 18 19 20 22 23 23 23 25 27 28 29 30 30 29 28 27 25 24 25 25 25 26 27 28 28 27 26 26 26 25 25 25 25 24 24 23 22 23 21 18 15 13 14 16 19 22 24 25 25 26 26 25 24 25 24 23 22 22 22 22 21 19 17 17 17 15 13 14 10 6 6 6 7 10 11 10 11 14 16 19
17 14 12 12 15 19 20 22 24 25 23 25 27 27 28 30 30 29 29 28 27 25 25 26 25 26 27 28 28 28 28 29 29 28 27 26 26 26 25 25 23 22 21 19 18 19 21 23 26 27 28 28 28 27 26 24 23 23 23 23 22 21 21 22 23 23 21 19 19 19 16 16 17 15 11 11 12 12 13 14 11 11 13 12 12
14 11 13 15 17 20 21 23 26 25 25 28 28 27 29 30 29 28 28 28 26 24 25 25 25 26 27 27 27 27 27 29 28 28 28 27 26 26 26 25 23 21 20 21 23 25 26 26 25 25 25 24 24 23 22 21 21 20 21 22 23 24 23 22 23 23 22 21 20 19 19 18 19 20 18 16 16 15 14 14 14 14 14 12 10
10 11 15 16 18 22 24 26 26 25 27 29 28 27 29 28 27 27 27 26 24 24 24 23 24 25 24 25 26 26 28 29 28 26 27 27 26 27 27 26 24 23 23 25 26 26 24 24 24 23 22 21 21 21 21 21 20 20 21 23 25 26 25 24 24 24 25 24 22 23 24 23 22 23 22 18 17 16 15 16 16 13 11 10 9
10 14 17 18 22 25 24 25 25 26 28 29 28 28 27 26 25 26 25 24 23 23 23 23 24 24 23 25 27 27 29 29 27 27 26 26 26 28 27 26 25 25 23 22 22 21 21 21 23 23 23 21 21 21 20 19 20 22 23 25 26 26 24 23 23 23 24 24 24 25 26 25 25 24 22 19 18 17 16 15 11 8 7 8 11
13 18 20 22 24 24 22 22 24 26 28 28 27 27 25 24 25 25 24 23 23 22 22 23 24 24 25 27 28 29 30 28 26 27 26 26 27 27 27 27 26 24 22 21 20 20 20 20 21 21 21 20 20 19 19 20 22 23 25 26 27 27 26 24 23 22 23 24 25 26 25 25 25 23 21 19 16 12 9 7 6 7 10 13 16
17 20 23 23 23 21 20 21 24 26 26 26 27 26 24 24 24 24 23 22 21 21 23 24 25 26 27 27 28 30 29 26 25 26 26 27 28 28 27 27 25 25 25 24 22 22 21 20 20 19 19 19 19 18 18 21 22 25 28 29 29 28 27 25 24 22 19 17 14 14 15 15 12 10 8 6 5 6 5 7 10 10 11 13 16
19 21 23 21 19 19 21 22 24 25 25 25 25 24 23 24 23 23 23 22 21 23 25 24 24 25 26 26 26 27 27 24 23 24 25 26 27 27 27 26 25 25 25 24 23 22 21 19 19 19 19 17 16 16 18 20 23 25 26 24 21 19 17 16 17 16 14 9 3 2 2 2 1 1 4 7 4 6 9 12 12 10 10 10 10
18 19 19 18 17 19 22 23 24 25 25 25 24 23 23 23 22 22 22 22 23 24 23 24 24 24 24 25 24 24 25 24 23 23 25 26 26 26 26 25 24 24 24 24 23 21 20 19 19 20 20 18 18 18 19 21 24 23 18 13 9 6 5 6 7 7 9 10 7 4 4 4 5 7 9 11 11 12 13 13 11 10 11 9 8
17 17 17 17 18 21 23 23 23 24 23 23 22 22 23 22 21 22 23 23 24 23 23 24 25 24 24 24 23 23 25 26 25 24 25 26 26 27 26 24 22 23 23 23 21 19 20 20 20 21 21 20 20 20 20 22 21 15 10 6 3 0 4 5 5 6 7 8 9 10 11 12 13 14 14 16 15 15 14 13 11 10 11 11 10
16 17 18 19 20 22 22 22 22 21 21 21 21 21 22 22 23 24 25 25 24 24 25 25 25 24 24 23 24 25 26 28 27 25 25 26 26 26 26 23 22 24 24 21 19 19 20 21 22 22 22 22 21 19 20 19 10 4 6 5 2 1 6 8 8 11 13 13 14 16 16 17 18 19 19 20 19 18 17 15 12 11 11 13 14
18 19 20 21 21 22 21 20 20 18 18 19 21 21 21 23 24 25 25 25 25 25 26 25 25 24 24 24 25 26 26 27 26 25 25 26 25 25 25 24 23 24 23 19 19 21 22 23 24 23 23 24 21 19 20 16 8 5 7 5 3 2 9 11 12 13 15 16 17 18 19 20 21 21 22 22 21 21 21 18 16 14 12 14 16
20 20 22 22 21 20 19 18 18 17 17 19 21 22 23 24 24 25 25 25 25 25 25 25 24 25 24 25 26 26 25 25 25 25 25 25 26 26 26 25 23 23 22 21 22 23 23 24 24 23 23 23 22 21 21 16 11 10 8 5 5 10 12 12 13 14 15 16 17 18 19 20 21 22 22 22 21 21 21 20 19 17 16 17 18
21 21 21 21 20 19 18 17 17 17 18 19 20 22 24 24 24 24 24 25 25 25 25 25 25 25 25 25 26 26 26 24 25 25 25 25 26 27 27 26 24 23 23 22 23 23 23 24 24 23 23 24 24 24 19 13 10 10 9 9 12 13 11 11 12 13 14 15 16 17 18 18 19 21 20 21 21 21 21 21 21 20 20 20 20
21 21 21 20 20 19 18 17 17 17 18 19 21 22 23 23 24 24 24 25 24 24 24 25 24 24 25 25 26 25 25 24 25 25 25 25 26 27 27 27 25 23 23 22 23 23 24 25 25 25 24 24 25 23 18 12 8 8 9 11 12 11 11 11 11 12 14 15 15 16 17 17 18 19 20 21 22 23 23 23 23 22 22 22 22
20 20 21 20 19 18 17 17 17 17 18 19 21 22 23 23 24 24 24 24 23 23 24 24 23 23 24 24 25 25 24 25 26 26 26 26 26 26 26 25 24 24 24 24 24 25 25 26 26 25 23 23 23 22 18 13 9 7 9 10 11 11 11 12 12 13 14 14 14 16 17 18 18 19 20 22 22 23 23 23 23 22 21 21 22
19 20 20 19 18 17 17 18 18 18 19 19 19 21 21 22 23 23 23 23 23 23 23 22 22 22 22 23 24 24 25 25 26 27 27 26 26 27 26 24 24 24 25 26 27 27 27 27 25 24 23 23 20 17 14 11 8 7 8 9 10 11 13 13 14 15 15 15 16 17 18 19 20 20 20 21 22 22 21 21 22 22 20 20 21
19 20 19 18 17 17 17 18 19 19 20 20 20 20 20 21 22 22 23 23 23 22 22 21 21 22 22 22 24 24 25 25 26 27 27 27 27 27 25 25 25 26 27 29 29 28 29 28 26 25 24 21 15 10 8 8 7 8 9 10 11 12 13 13 14 15 15 16 17 18 19 20 20 21 21 21 21 21 19 19 20 21 20 20 21
18 18 17 16 16 16 16 18 19 20 20 21 20 21 21 21 21 21 22 23 22 22 22 21 22 22 22 23 24 24 24 24 25 26 27 27 27 26 25 25 26 26 27 28 27 28 29 29 26 23 18 13 8 6 6 7 8 9 11 12 13 14 14 15 15 16 17 17 18 19 20 20 20 21 20 20 21 20 18 17 18 19 19 18 18
18 17 16 16 16 16 17 18 19 20 21 21 21 21 21 21 20 21 22 21 20 21 22 22 23 23 23 23 24 24 24 25 25 25 26 26 26 26 25 25 25 25 26 25 25 27 27 22 16 12 9 7 6 7 9 10 12 13 14 15 16 17 17 17 18 18 19 18 19 19 20 20 21 21 20 20 21 20 18 17 17 18 18 18 18
18 17 16 15 15 16 17 18 19 20 21 22 23 24 24 22 20 20 22 22 20 19 20 21 22 22 23 23 23 22 23 25 25 25 26 26 25 25 24 24 24 24 24 23 23 24 22 18 13 10 10 10 10 11 12 13 15 16 17 18 19 19 19 19 19 19 20 19 19 19 19 20 21 21 20 20 21 20 19 17 17 17 18 19 19
18 17 16 14 15 16 17 18 19 20 21 22 23 25 27 28 25 23 23 24 23 21 20 19 19 20 21 23 23 23 22 23 24 25 25 25 24 24 24 24 23 23 22 22 22 20 18 16 15 13 12 12 12 12 13 14 16 17 19 20 21 21 21 22 21 21 20 20 20 19 19 19 20 20 20 20 20 21 20 18 18 18 19 19 19
16 16 15 14 15 16 17 18 19 21 22 22 23 24 27 29 30 29 27 26 25 24 22 21 20 20 21 22 23 23 22 23 23 24 24 24 23 23 23 22 22 21 20 20 19 18 16 16 15 15 14 14 14 14 15 16 17 18 20 22 23 23 23 23 23 22 21 21 20 20 19 19 20 20 19 19 19 20 21 20 20 19 19 19 19
13 14 13 13 15 16 17 18 19 20 22 23 23 24 24 25 28 31 32 31 29 27 25 24 24 24 24 22 21 21 22 22 23 24 23 23 23 23 23 22 22 21 19 17 18 18 17 17 17 17 16 17 17 18 19 19 20 21 22 23 24 25 25 24 23 22 21 20 19 19 19 19 19 19 19 19 19 20 21 21 21 20 19 19 19
11 11 12 13 15 17 17 18 19 20 21 22 22 23 24 24 24 27 29 31 32 31 30 28 26 26 25 23 21 21 22 22 23 22 22 22 22 22 22 22 22 20 17 16 18 19 19 19 20 20 20 20 20 21 22 22 22 23 24 24 25 26 26 24 22 21 21 20 19 20 19 19 19 19 19 20 20 20 20 20 20 19 18 18 19
10 10 11 13 15 16 17 17 18 20 20 21 21 22 23 24 24 24 24 26 28 30 32 31 29 27 25 23 23 23 23 22 22 21 20 21 21 20 21 22 22 21 19 18 19 19 20 20 21 22 22 22 22 22 23 23 24 24 24 25 26 26 25 24 23 22 21 20 19 19 19 19 19 19 19 20 20 20 20 20 19 19 19 19 19
11 11 13 14 15 16 17 17 18 19 20 21 21 22 23 23 24 24 24 24 25 27 30 32 31 28 25 24 24 24 24 23 22 21 20 20 20 20 20 22 22 22 23 22 20 20 21 21 21 22 22 23 23 23 23 24 24 24 24 25 25 25 25 24 23 22 21 20 20 20 20 21 21 19 18 19 20 19 19 19 19 18 18 17 17
12 13 14 15 15 16 17 18 19 19 20 21 21 22 23 23 23 23 24 24 25 26 28 30 31 30 28 27 26 26 25 25 24 23 22 22 22 21 21 21 21 22 24 23 23 23 23 22 22 23 23 23 24 24 24 24 24 24 24 24 24 25 25 24 23 22 21 21 21 21 21 21 20 18 17 18 19 19 18 18 18 18 18 17 17
12 13 14 15 16 17 18 20 20 20 20 21 21 22 22 23 23 23 23 24 25 26 27 28 29 29 30 30 29 27 27 28 28 27 27 26 25 23 23 23 22 23 24 24 24 24 24 25 24 24 24 24 24 24 24 24 24 24 24 24 24 24 24 24 23 22 21 22 21 20 20 20 19 17 17 18 19 19 19 18 18 19 20 19 18
12 13 14 15 17 18 19 20 20 20 21 21 21 21 22 22 23 23 24 24 25 26 26 27 28 28 29 30 29 28 28 28 28 29 29 28 27 25 25 24 24 24 24 25 25 24 25 26 25 24 24 24 24 24 24 24 24 24 24 24 25 25 24 24 24 23 22 22 21 20 20 20 19 17 17 18 19 19 19 19 19 19 19 20 19
14 14 15 16 17 18 19 19 19 19 20 21 21 21 21 22 22 23 23 24 25 26 26 27 28 28 28 28 27 25 25 26 27 28 28 28 28 27 26 25 25 25 25 26 25 25 26 26 26 25 25 25 25 25 24 24 24 24 24 24 24 25 25 24 24 24 23 22 21 21 20 19 18 18 18 18 19 19 19 19 20 19 19 20 21
15 16 16 17 17 18 18 19 19 19 19 20 20 21 21 21 22 22 23 23 24 25 26 27 28 28 28 27 25 23 23 25 26 27 27 28 28 28 27 26 26 26 26 26 26 26 26 26 26 26 26 26 25 25 25 24 24 24 24 24 24 25 26 25 24 24 23 22 21 21 20 19 18 18 19 19 18 18 19 19 20 21 21 22 22
16 16 17 17 18 18 19 19 19 19 19 20 21 21 21 22 22 22 23 23 24 25 26 28 29 29 28 27 26 24 23 24 25 26 27 27 27 28 28 27 26 26 26 27 27 26 27 27 27 27 26 26 26 25 25 25 25 24 25 25 25 25 26 25 25 24 23 22 21 20 19 19 19 19 19 20 19 19 20 21 21 22 22 22 21
15 16 17 18 18 19 19 19 20 20 20 21 22 21 21 22 22 22 23 24 24 25 26 28 29 30 29 28 27 26 26 26 26 26 27 27 27 28 28 27 27 27 26 26 26 25 26 27 27 27 26 26 25 25 25 25 24 25 25 25 25 25 26 25 25 24 23 22 22 21 21 21 20 20 20 20 20 20 21 21 22 22 22 22 22
16 16 18 19 19 20 20 20 20 21 21 21 22 22 22 22 22 23 23 24 25 25 26 27 28 29 30 29 28 27 27 27 27 27 27 27 28 28 28 28 27 27 27 26 26 25 25 26 26 26 26 26 25 25 25 24 24 24 24 25 25 26 26 25 25 24 23 23 23 23 22 22 21 21 21 21 21 21 21 21 22 22 21 21 21
16 17 18 19 20 21 21 21 21 21 21 22 22 23 22 23 23 23 24 24 25 26 27 27 28 28 29 29 29 28 28 28 28 27 27 27 28 28 28 28 28 28 27 27 26 25 25 25 25 26 26 26 25 24 24 23 23 23 23 23 24 25 25 25 24 23 23 23 23 24 23 23 23 23 23 23 22 22 22 22 22 22 21 21 21
17 17 19 20 21 21 22 22 21 22 22 22 23 23 23 23 24 24 24 25 25 26 27 28 28 28 28 28 28 28 28 28 28 28 28 28 28 28 28 28 28 28 27 27 26 25 25 24 24 25 26 26 25 25 24 23 23 22 22 22 23 23 24 23 23 23 23 23 23 24 24 24 25 24 24 24 23 22 23 23 23 22 23 23 23
17 18 19 19 20 21 22 22 22 22 22 22 22 23 24 24 24 24 25 25 25 26 27 27 28 28 28 28 28 28 28 28 28 28 28 28 28 28 28 28 28 28 28 27 26 25 25 25 24 25 25 25 25 25 24 24 23 23 23 22 22 22 22 22 22 23 23 23 24 25 25 25 26 26 25 25 24 24 24 24 23 24 24 23 23
17 18 19 19 20 21 21 21 22 22 22 22 23 23 24 24 25 25 25 25 26 26 27 27 28 28 28 28 28 27 27 27 28 28 28 28 28 28 28 28 28 28 28 28 27 26 26 25 25 24 25 25 25 25 25 25 24 24 24 23 22 23 23 23 24 25 25 24 25 25 25 26 26 26 25 24 24 23 23 24 24 24 24 23 23
18 19 19 20 20 20 21 21 21 22 22 22 23 24 24 24 25 25 25 26 26 26 27 27 28 28 28 28 28 27 27 28 28 28 28 28 28 28 28 29 29 28 28 28 28 27 26 26 25 25 25 25 25 25 25 25 25 25 24 24 24 25 25 25 24 24 24 24 24 24 24 24 25 25 24 24 23 23 23 24 24 24 23 22 23
18 19 20 20 21 21 21 21 21 22 22 22 23 24 24 24 25 25 25 26 27 27 27 27 27 27 27 28 28 28 28 28 28 28 28 28 28 28 29 29 29 29 29 28 28 27 27 26 26 25 25 25 25 25 25 25 25 25 25 25 25 25 24 23 23 22 22 21 21 22 22 23 24 24 24 23 23 23 23 23 23 22 21 21 21
19 19 20 20 21 21 21 21 22 22 22 22 22 23 24 24 25 25 25 26 27 27 27 27 27 27 27 27 27 27 27 27 27 28 28 28 28 28 28 29 29 29 29 29 28 28 28 27 26 26 26 26 26 26 25 26 26 26 27 27 26 25 24 24 24 23 21 20 19 20 21 21 22 23 23 22 22 22 22 22 21 20 20 20 20
Wind_Direction
30 28 22 22 21 21 22 22 25 29 25 21 25 24 21 20 17 11 10 10 6 4 3 1 359 358 357 356 356 355 354 355 353 348 346 346 344 341 340 338 336 336 335 334 334 334 330 327 327 328 329 325 321 321 318 316 314 309 307 303 295 293 286 275 274 286 288 287 281 281 288 288 283 284 283 278 278 278 276 272 267 266 263 260 259
24 21 19 19 22 24 24 24 27 28 23 23 24 20 16 14 9 4 2 2 0 357 356 355 353 352 351 351 351 350 351 350 347 345 343 340 337 334 333 331 329 330 331 329 330 330 326 322 322 324 324 320 316 318 316 310 312 310 305 301 296 290 282 276 275 280 286 289 288 286 289 288 281 282 284 278 275 276 276 274 274 274 274 273 273
18 16 16 20 22 21 21 22 22 21 20 19 16 12 8 3 1 359 355 354 352 349 348 348 347 346 345 345 346 346 346 345 342 340 339 335 331 328 325 325 325 326 325 323 324 325 321 318 317 317 318 316 312 312 307 302 307 307 301 299 294 288 284 276 273 273 281 287 289 288 287 286 282 282 283 278 276 278 278 276 276 277 278 280 281
16 15 16 20 20 16 16 15 14 14 12 9 5 1 359 355 352 352 350 348 347 344 342 342 342 340 338 339 340 339 339 338 337 336 334 330 327 324 323 324 324 323 321 319 319 317 314 313 313 315 314 310 308 307 303 301 304 302 299 295 290 288 286 278 273 274 278 284 286 288 287 286 284 283 282 280 277 277 278 278 279 279 279 280 282
15 13 15 18 15 13 13 10 9 10 5 2 360 355 353 351 347 346 346 344 344 342 340 341 340 337 336 336 334 333 333 333 332 331 330 328 325 324 325 325 324 323 320 317 313 309 306 305 306 308 306 302 302 303 302 304 306 304 301 298 296 292 286 280 276 276 278 282 286 288 288 286 285 283 281 281 279 278 277 276 277 277 276 275 275
13 11 15 19 11 8 9 6 6 6 1 358 357 353 352 350 347 345 344 342 341 338 337 339 337 334 336 335 332 331 332 330 329 328 327 325 324 324 326 326 324 321 319 317 312 304 297 297 300 301 300 298 299 300 301 306 314 315 315 314 311 307 298 290 282 275 272 275 281 286 288 286 284 282 280 278 274 273 274 274 272 268 266 266 265
12 9 15 20 9 7 8 2 0 1 357 354 352 351 349 348 346 344 342 341 338 335 336 336 333 333 334 334 333 333 332 330 329 327 326 328 328 326 325 324 321 317 316 312 306 299 295 297 300 299 296 295 294 295 299 305 312 314 314 316 315 314 312 307 300 287 274 270 274 278 281 282 281 279 277 271 262 264 275 282 274 266 265 274 278
9 7 12 16 6 3 1 356 354 353 351 348 347 346 345 345 343 341 342 341 338 337 337 334 332 333 334 334 334 335 332 331 330 327 328 331 327 320 317 316 312 308 306 302 298 298 297 297 296 292 287 283 284 292 301 304 307 307 305 306 306 305 305 305 306 302 292 286 283 280 281 281 279 275 267 261 264 272 283 290 282 283 287 288 287
7 7 12 13 4 0 355 351 350 349 347 345 344 344 342 341 340 340 341 340 339 339 336 332 333 334 334 334 334 335 334 332 332 328 326 325 319 313 309 307 303 299 297 297 297 297 295 291 285 283 287 291 295 299 301 302 302 300 299 300 299 297 296 294 293 292 292 293 290 288 289 286 285 286 272 261 269 273 282 297 298 298 301 296 289
7 9 17 12 358 355 352 349 348 348 347 345 343 342 340 339 339 340 340 339 339 339 334 332 334 334 333 333 333 334 334 332 331 328 322 319 316 314 311 307 303 301 299 299 298 295 292 291 292 295 298 300 301 301 300 299 296 293 292 292 292 292 290 286 282 279 279 281 281 283 285 283 284 290 285 280 287 290 295 302 301 296 298 300 296
8 12 18 6 351 352 352 348 347 347 345 343 342 341 339 339 340 339 338 339 338 336 332 333 333 332 331 332 332 333 332 330 330 328 322 320 318 317 315 312 310 309 306 304 305 305 303 301 300 300 300 299 299 298 297 295 292 289 286 284 285 287 284 278 276 274 270 269 271 273 272 271 273 276 276 280 289 296 295 291 289 287 287 288 291
11 8 6 359 351 353 352 347 346 345 343 342 341 339 338 339 340 338 337 337 335 333 332 332 330 330 331 331 331 331 330 329 329 325 321 320 319 319 320 318 315 313 310 310 312 312 311 309 306 303 300 299 297 295 293 291 289 287 287 287 287 285 279 272 269 268 267 266 267 267 266 266 270 272 274 280 288 290 284 278 277 276 272 267 270
11 356 358 359 352 351 349 346 345 343 342 341 340 339 339 339 339 337 335 335 333 331 331 330 329 331 331 330 329 327 327 328 327 322 320 319 318 320 322 320 316 316 316 315 314 313 312 311 308 306 304 301 299 296 294 292 289 287 288 289 288 284 279 274 268 265 265 266 266 266 266 267 269 270 273 281 288 283 275 276 275 269 264 261 268
7 352 355 356 350 348 348 346 344 341 341 341 340 339 340 338 337 336 334 334 332 330 331 331 331 332 330 328 326 324 325 327 324 319 318 318 317 320 322 320 318 319 320 321 321 321 321 319 314 311 308 306 303 300 296 292 290 290 290 289 288 287 285 283 278 271 268 267 267 267 267 267 268 270 276 282 282 277 272 270 268 268 274 278 285
1 353 352 352 349 349 348 345 343 341 341 342 341 340 339 337 336 336 335 333 332 331 331 331 330 328 327 325 323 322 324 325 321 318 318 316 317 321 323 320 318 318 317 319 321 322 323 323 320 316 312 309 306 301 298 295 291 290 289 288 289 291 291 291 289 285 280 278 276 274 271 268 268 271 279 279 271 266 260 254 268 293 298 295 295
357 353 351 351 350 349 347 343 342 342 342 341 340 340 339 337 338 337 335 333 332 330 329 328 327 324 323 323 322 321 323 324 320 318 318 315 317 322 323 319 317 316 315 315 315 314 313 316 319 320 317 311 304 298 296 293 289 286 284 284 285 286 287 289 288 286 287 287 289 287 277 270 268 273 295 301 251 232 248 277 293 305 310 307 304
356 352 350 350 349 346 344 342 341 342 342 341 341 341 340 339 338 338 335 333 331 329 328 327 326 325 324 325 324 322 324 327 324 321 318 316 319 324 324 320 318 317 316 318 316 313 311 311 313 317 319 317 312 304 296 290 287 285 283 282 283 281 279 280 276 272 274 276 297 10 297 255 200 254 6 24 5 297 305 310 310 315 318 312 305
354 351 349 348 345 343 343 342 341 341 341 341 342 343 342 340 338 338 335 332 330 330 329 328 328 330 330 330 330 327 328 332 332 325 319 318 321 327 327 323 321 320 319 319 319 317 314 311 308 309 313 319 318 309 300 296 295 294 292 291 285 279 282 284 272 262 262 260 257 263 272 288 301 303 321 341 338 327 329 328 322 318 313 300 286
352 351 348 346 343 341 342 341 341 341 341 343 345 345 343 341 339 338 337 334 332 331 331 331 332 335 337 337 337 335 334 336 337 329 323 321 323 328 331 329 326 324 321 319 319 319 317 314 308 304 305 311 314 310 304 302 296 291 302 309 274 25 23 351 334 335 320 302 299 302 304 310 315 317 319 324 329 331 331 328 323 317 311 300 288
353 351 347 345 342 341 342 342 342 344 344 346 348 347 345 343 341 341 339 338 336 335 336 337 336 337 341 339 338 338 336 336 337 332 327 323 322 329 336 336 330 326 321 318 320 324 324 320 313 306 301 303 309 307 304 307 303 290 331 335 224 113 14 355 348 348 340 335 330 323 320 319 318 318 318 318 321 322 319 318 315 310 304 297 289
352 349 347 346 343 344 345 344 346 349 349 350 350 347 347 345 343 343 342 341 341 340 340 341 338 336 338 336 335 337 338 337 338 336 331 326 323 329 337 337 331 327 324 324 327 329 328 324 318 312 304 301 303 298 298 312 335 337 340 14 94 6 344 340 342 342 335 332 329 324 324 323 319 318 317 316 316 314 309 306 304 300 294 289 287
351 348 347 348 347 347 348 348 351 352 352 353 351 346 346 346 344 344 344 343 342 341 340 339 336 333 334 334 334 337 340 341 340 337 334 329 325 327 332 333 329 327 326 325 325 324 324 323 320 318 312 304 296 289 293 312 331 324 329 4 353 333 334 335 334 332 329 328 326 323 324 323 318 316 315 314 311 308 303 301 298 295 287 281 280
349 349 350 351 351 350 351 352 353 354 353 352 349 345 345 346 344 345 345 343 341 339 337 336 334 331 331 332 333 336 339 340 339 336 334 331 326 324 328 331 330 328 326 323 321 321 321 321 320 317 314 306 294 290 299 319 330 321 322 328 325 327 333 333 331 330 328 327 325 323 323 321 317 316 314 312 309 305 303 302 299 295 290 283 278
349 351 352 353 353 352 353 353 353 353 353 351 348 345 345 346 344 344 345 343 339 335 334 333 331 330 328 328 330 333 336 336 335 333 331 328 326 325 328 331 331 329 328 324 322 322 318 315 313 310 306 303 299 299 308 321 323 315 315 317 322 329 333 334 337 334 328 327 325 322 320 317 314 313 311 308 306 304 303 302 299 296 292 287 281
351 354 354 354 354 353 352 353 354 353 352 350 348 347 346 345 344 343 342 340 336 332 331 330 329 327 325 325 327 329 332 331 330 330 329 327 329 330 329 329 328 327 326 322 318 315 311 309 309 306 304 305 304 301 301 304 310 316 316 318 324 331 334 339 341 336 331 329 325 319 316 313 310 308 307 306 304 304 304 303 300 299 295 290 286
352 354 354 353 354 353 351 353 355 353 352 352 349 347 347 346 344 341 338 336 334 331 329 328 327 325 324 325 326 326 327 327 327 329 330 330 332 331 328 326 326 325 323 320 317 314 311 309 307 305 305 308 304 294 288 292 302 312 318 322 327 332 337 339 337 333 330 325 320 315 312 311 309 307 307 306 304 305 307 307 306 305 303 301 297
350 352 353 351 352 354 354 355 354 352 352 352 349 347 348 348 343 339 335 333 331 330 328 327 326 325 324 325 325 325 325 325 326 328 330 329 327 327 326 326 326 326 324 323 321 317 313 308 304 303 306 305 295 277 275 288 301 312 320 325 328 332 336 334 330 327 323 317 314 312 310 309 309 308 309 308 306 307 309 311 309 308 309 310 304
348 349 350 350 351 354 355 355 352 350 350 349 346 346 348 348 343 337 334 332 329 327 327 325 324 324 324 324 324 324 323 323 324 325 326 325 323 324 326 327 326 326 324 323 322 320 318 311 302 298 303 302 285 275 290 303 313 321 325 327 328 330 331 328 324 321 317 314 313 310 310 310 309 309 311 309 308 309 312 311 309 309 312 311 302
347 347 348 349 350 352 353 353 351 349 347 346 344 343 345 346 340 333 333 335 330 324 324 324 323 323 324 323 324 322 319 319 321 322 321 322 322 323 324 325 325 324 324 324 324 327 332 330 315 304 316 330 327 326 326 323 324 325 326 326 326 326 328 327 325 322 318 315 313 312 312 312 310 310 311 309 308 311 313 312 310 310 310 306 297
344 344 347 349 350 350 350 349 349 348 346 344 342 340 342 344 342 335 334 336 333 327 324 323 323 324 324 322 321 318 314 314 317 320 320 321 321 322 322 322 323 322 323 326 326 327 337 349 357 357 357 355 349 344 337 330 327 325 323 324 325 326 327 326 325 323 318 313 312 311 310 309 308 308 309 308 309 312 312 310 309 307 304 300 295
341 341 344 348 349 349 347 346 346 346 344 343 342 339 338 339 341 341 340 339 338 335 331 327 325 325 324 321 320 317 315 315 317 319 321 321 321 322 322 321 321 322 323 325 324 325 334 346 352 353 352 347 342 337 331 327 325 324 323 322 321 323 323 322 322 321 315 310 309 308 307 307 306 306 307 307 308 308 308 308 307 305 302 299 294
337 337 340 344 346 346 344 343 343 343 341 341 342 340 337 334 336 339 342 342 341 341 340 337 334 332 329 326 323 320 318 318 319 320 321 321 321 322 322 321 320 322 322 319 317 322 331 336 336 338 338 334 330 326 323 320 320 321 321 319 317 318 319 319 318 315 310 307 306 306 306 306 304 304 305 305 304 304 305 306 306 304 303 300 295
334 334 338 342 343 343 342 341 341 341 340 339 339 339 337 333 330 332 336 340 342 343 344 343 341 339 337 334 330 324 320 320 320 321 321 322 322 322 323 320 318 320 321 318 316 320 324 324 323 323 324 322 320 319 317 316 316 316 315 313 312 313 314 315 314 311 307 306 305 304 304 304 303 303 304 304 303 302 302 302 303 304 302 300 297
335 335 339 341 340 339 339 340 339 338 338 338 338 336 334 333 330 328 329 333 337 339 342 345 345 343 340 339 339 335 327 323 323 322 322 323 323 324 322 318 316 319 322 322 322 322 321 319 317 316 317 316 315 314 313 313 312 312 312 311 311 311 313 313 312 310 308 307 304 302 302 303 303 303 302 302 302 300 298 299 301 302 300 299 297
338 337 338 338 337 337 338 338 338 336 335 336 336 334 332 332 331 329 327 327 327 328 331 337 343 345 344 344 345 342 336 332 330 327 324 324 325 325 324 322 324 327 327 326 324 322 320 317 315 314 313 313 312 312 311 311 311 311 311 310 311 311 311 312 311 309 308 306 304 302 303 302 302 301 299 298 297 296 295 297 299 300 298 297 296
338 337 337 338 337 337 337 336 336 335 334 333 333 332 332 332 332 330 329 327 324 322 324 330 337 344 348 349 348 343 339 339 337 332 328 328 329 329 328 327 327 326 324 324 324 321 318 316 314 313 312 311 310 310 309 308 309 309 309 309 309 309 309 309 309 309 307 305 303 302 301 300 300 301 299 297 295 293 294 296 298 298 297 296 295
334 334 337 339 337 336 335 335 335 334 333 333 333 333 334 334 334 332 330 329 327 325 325 330 335 340 344 349 349 344 340 341 340 337 334 336 337 337 334 330 326 322 320 322 323 320 317 316 315 314 312 311 310 309 309 308 308 309 309 309 308 307 307 307 307 305 303 301 300 300 300 299 301 303 301 296 294 294 295 297 297 297 297 297 296
333 334 337 337 336 334 333 333 335 334 334 334 336 336 336 335 335 334 331 330 328 327 327 330 332 333 335 340 345 344 341 340 340 339 340 341 341 340 338 335 330 324 321 322 323 321 317 317 318 316 314 313 312 311 311 311 310 310 310 310 309 308 307 306 305 304 302 301 301 301 302 301 302 303 300 295 292 294 296 297 297 297 298 298 297
337 339 339 337 336 336 334 334 335 335 335 336 338 338 336 335 335 334 332 330 329 329 329 329 329 330 333 337 341 343 339 335 334 335 336 338 340 340 338 335 332 329 326 325 325 323 320 319 320 319 317 315 315 314 313 313 312 312 311 310 309 308 307 307 307 307 306 305 304 305 304 303 303 304 301 295 293 294 295 296 298 297 296 296 296
336 337 339 339 338 336 336 336 336 336 337 337 337 337 336 335 334 332 330 329 328 329 329 327 327 331 336 338 340 338 331 326 327 329 330 333 336 338 337 335 332 330 328 327 326 325 322 321 321 320 319 318 317 316 316 314 313 312 312 310 308 307 307 307 306 306 306 306 306 305 304 304 305 304 300 297 297 297 296 297 298 296 293 293 295
332 333 336 338 338 336 336 337 337 337 338 337 336 337 336 334 333 331 330 329 328 328 329 328 330 334 338 340 341 337 328 324 326 329 330 331 333 333 334 334 332 330 328 327 327 326 324 322 322 321 320 320 320 319 318 317 315 314 313 311 309 307 307 307 307 306 307 307 306 305 305 305 304 302 300 300 301 300 297 295 294 294 294 294 295
328 330 333 336 336 335 335 336 336 337 338 337 338 337 335 333 333 332 330 330 330 329 328 330 333 336 339 342 343 340 335 332 333 332 332 333 333 333 334 334 333 332 330 329 328 327 325 323 322 322 321 321 321 321 319 317 317 315 312 311 309 307 307 307 308 309 309 308 307 307 306 305 304 301 299 300 299 297 296 296 295 296 296 295 296
324 327 330 331 332 331 333 334 334 335 336 336 336 336 336 334 334 333 331 331 332 331 329 330 333 336 339 343 344 343 340 339 338 336 335 335 334 334 335 336 335 335 334 333 332 331 327 325 324 323 323 323 322 321 319 318 317 315 312 309 308 306 305 305 307 308 309 308 307 306 305 304 303 300 299 299 298 297 297 296 296 297 296 295 296
321 324 325 326 327 327 329 330 331 331 333 333 333 334 335 335 335 335 334 332 332 332 331 331 332 334 337 341 343 343 341 340 339 337 336 336 335 336 336 337 337 337 337 336 337 335 331 327 326 325 325 325 325 324 322 321 318 315 312 309 307 304 303 303 304 307 307 304 302 302 301 300 299 297 296 297 297 295 294 294 294 295 295 295 295
315 319 321 322 323 324 325 328 329 329 329 331 331 332 334 335 334 334 334 332 332 332 332 333 334 334 335 338 340 340 340 339 339 338 338 337 337 337 338 339 338 338 338 339 339 338 335 332 329 328 327 328 328 327 325 324 322 319 315 311 307 304 304 305 306 307 305 301 298 298 297 296 295 295 294 295 295 292 291 291 292 292 292 292 292
312 315 317 318 319 320 322 325 327 327 327 329 329 329 331 333 333 333 333 332 332 332 332 334 335 335 335 337 338 338 339 339 338 338 339 339 339 340 340 340 340 340 339 340 341 341 339 337 334 332 330 331 331 331 330 329 327 325 321 317 313 309 310 311 310 308 305 301 299 297 295 293 292 292 292 292 292 289 288 288 288 288 289 289 289
312 313 314 315 316 317 319 322 324 324 325 326 326 327 328 329 331 331 332 333 333 332 333 334 335 335 336 336 337 337 338 338 338 338 339 340 341 342 342 341 341 341 342 343 344 343 342 341 340 337 335 335 334 335 334 333 332 330 327 324 320 316 316 316 313 309 305 303 299 296 292 290 289 289 289 289 287 286 286 286 286 287 288 288 288
313 313 314 314 314 314 317 319 321 321 322 324 324 324 325 327 328 330 331 332 332 332 333 333 334 335 336 336 337 338 338 338 338 339 339 341 342 343 343 342 343 343 343 344 346 346 345 345 343 342 340 339 338 337 337 336 335 333 330 327 325 323 322 319 314 308 304 301 297 293 289 287 286 286 286 286 285 284 285 286 287 288 290 289 288
313 313 313 313 313 314 315 317 317 317 320 321 321 322 324 326 327 328 330 330 330 331 332 332 333 334 335 336 337 338 338 339 339 339 340 342 343 344 344 344 344 344 344 344 346 347 347 347 347 345 344 343 341 340 339 338 336 334 332 330 328 326 323 318 311 305 301 297 292 289 286 284 283 283 283 283 283 283 284 285 286 288 288 288 288
310 311 311 311 312 313 315 314 314 316 317 318 319 320 322 323 324 326 328 328 329 330 332 332 333 333 334 335 336 337 337 338 338 339 340 341 342 343 344 345 345 346 346 345 346 348 348 348 348 348 347 346 344 343 342 340 339 338 336 334 330 327 324 321 317 311 306 299 293 289 287 284 283 283 282 282 282 282 283 284 285 286 285 285 286
308 309 310 309 310 312 313 313 313 315 316 316 317 317 318 320 321 324 325 326 327 329 330 331 332 333 334 335 336 336 336 337 338 338 339 341 341 342 343 344 344 345 346 346 347 348 349 349 349 349 348 348 347 346 345 344 344 342 340 337 335 333 332 329 323 316 311 303 296 291 288 286 283 283 282 282 282 282 282 283 283 284 284 284 284